Regional Weather Roundup
Issued by NWS

Home | Current Version | Previous Version | Text Only | Print | Product List | Glossary Off
Versions: 1 2 3 4 5 6 7 8 9 10 11 12 13 14 15 16 17 18 19 20 21 22 23 24 25 26 27 28 29 30 31 32 33 34 35 36 37 38 39 40 41 42 43 44 45 46 47 48 49 50

000
ASUS43 KIND 300509
RWRIN

WEATHER ROUNDUP FOR INDIANA
NATIONAL WEATHER SERVICE INDIANAPOLIS IN
100 AM EDT MON MAY 30 2016

NOTE: "FAIR" INDICATES FEW OR NO CLOUDS BELOW 12,000 FEET WITH NO
SIGNIFICANT WEATHER AND/OR OBSTRUCTIONS TO VISIBILITY.

* - STATION DOES NOT REPORT WEATHER SUCH AS PRECIPITATION OR FOG.

+ - STATION NOT QUALITY CONTROLLED BY THE NATIONAL WEATHER SERVICE.
    USE DATA WITH CAUTION...ESPECIALLY DEWPOINT AND RELATIVE
    HUMIDITY OBSERVATIONS.

INZ001>003-010>013-019-020-300600-
NORTHWEST INDIANA

CITY           SKY/WX    TMP DP  RH WIND       PRES   REMARKS
GARY /AIRPORT/ CLEAR     64  64  97 CALM      30.02S
KNOX *+        CLEAR     63  52  67 SW5       30.02R
LA PORTE +     CLEAR     67  58  72 W3        30.02S
MICHIGAN CITY+ CLEAR     61  59  94 CALM      30.02R
MONTICELLO +   CLEAR     66  52  60 CALM      30.02S
RENSSELAER +   CLEAR     68  55  64 SW5       30.03S
VALPARAISO     CLEAR     67  56  67 W3        30.03R

$$

LMZ046-743>745-300600-
SOUTHERN LAKE MICHIGAN

STATION/POSITION TIME  TEMP    WIND        PRES    WAVE
                       AIR SEA DIR/SP/G            HT
                 (UTC) (F)     (DEG/KT/KT) (MB)    (FT)
BURNS HARBOR     0400   68     240/  6/  8 1016.3S
MICHIGAN CITY    0400   69     210/  9/  9   N/A
5NW MICH CITY    0500   62 59  240/  6/  6   N/A     1

$$

INZ004-005-014>016-021>024-300600-
NORTH CENTRAL INDIANA

CITY           SKY/WX    TMP DP  RH WIND       PRES   REMARKS
GOSHEN         CLEAR     61  55  81 S3        30.01S
LOGANSPORT +   CLEAR     68  54  60 W5        30.03S
PERU/GRISSOM   CLEAR     67  56  68 W3        30.02S
ROCHESTER +    CLEAR     64  59  82 CALM      30.03R
SOUTH BEND     CLEAR     64  57  78 S5        30.02R
WARSAW +       CLEAR     63  57  82 CALM      30.02S

$$

INZ006>009-017-018-025>027-300600-
NORTHEAST INDIANA

CITY           SKY/WX    TMP DP  RH WIND       PRES   REMARKS
ANGOLA *+        N/A     61  54  77 CALM      30.01S
AUBURN +       CLEAR     61  55  82 CALM      30.03S
FORT WAYNE     PTCLDY    66  56  70 CALM      30.03R
HUNTINGTON +   CLEAR    N/A N/A N/A CALM      30.02S

$$

INZ028-029-035-036-043>045-051>053-300600-
WEST CENTRAL INDIANA

CITY           SKY/WX    TMP DP  RH WIND       PRES   REMARKS
CRAWFORDSVL +  CLOUDY    62  55  79 CALM      30.04S
GREENCASTLE +  PTCLDY    70  59  68 NW5       30.05S
LAFAYETTE      CLEAR     65  57  75 W3        30.02S
TERRE HAUTE    MOCLDY    65  59  81 CALM      30.04F

$$

INZ030>032-037>040-046>048-054>057-064-065-300600-
CENTRAL INDIANA

CITY           SKY/WX    TMP DP  RH WIND       PRES   REMARKS
CP ATTERBURY + CLEAR     63  59  88 CALM      30.04S
FISHERS *+     PTCLDY    63  59  88 CALM      30.04S
FRANKFORT +      N/A     66  47  50 NW5       30.06R
GREENWOOD *+   CLEAR     66  64  94 CALM      30.04S
INDIANAPOLIS   MOCLDY    69  56  62 W5        30.02S
-EAGLE CREEK   PTCLDY    71  58  63 NW3       30.03S
KOKOMO *+      CLEAR     66  54  63 W3        30.03R
MARION +       CLEAR     65  55  71 CALM      30.04S
SHELBYVILLE    CLEAR     69  63  81 CALM      30.02S
ZIONSVILLE +   PTCLDY    67  56  67 CALM      30.05S

$$

INZ033-034-041-042-049-050-058-059-300600-
EAST CENTRAL INDIANA

CITY           SKY/WX    TMP DP  RH WIND       PRES   REMARKS
MUNCIE         CLEAR     66  56  70 CALM      30.03R

$$

INZ060-061-067>069-081>083-085>088-300600-
SOUTHWEST INDIANA

CITY           SKY/WX    TMP DP  RH WIND       PRES   REMARKS
EVANSVILLE     MOCLDY    65  63  93 CALM      30.05S
HUNTINGBURG *+ CLOUDY    66  63  88 CALM      30.04S
WASHINGTON +   MOCLDY    69  62  78 W6        30.03S

$$

INZ062-063-066-070>080-084-089>092-300600-
SOUTH CENTRAL AND SOUTHEAST INDIANA

CITY           SKY/WX    TMP DP  RH WIND       PRES   REMARKS
BEDFORD +      CLOUDY    70  70 100 CALM      30.02F
BLOOMINGTON    CLOUDY    67  62  84 CALM      30.03F
MADISON *+     CLEAR     66  63  88 CALM      30.06S
NORTH VERNON + CLEAR    N/A N/A N/A CALM      30.05R
SEYMOUR +      MOCLDY    68  64  88 CALM      30.03S

$$





USA.gov is the U.S. government's official web portal to all federal, state and local government web resources and services.